EN

Hourly Weather Bose-Bangu

Today, 14 May, Friday

Time Temperature Precipitation Wind Pressure Humidity
00:00 +37°C° 0 mm 4 mps 734 mmHg 22%
01:00 +37°C° 0 mm 4 mps 734 mmHg 27%
02:00 +36°C° 0 mm 5 mps 734 mmHg 31%
03:00 +35°C° 0 mm 6 mps 734 mmHg 36%
04:00 +35°C° 0 mm 6 mps 734 mmHg 36%
05:00 +35°C° 0 mm 6 mps 735 mmHg 37%
06:00 +34°C° 0 mm 6 mps 735 mmHg 38%
07:00 +36°C° 0 mm 6 mps 736 mmHg 34%
08:00 +39°C° 0 mm 7 mps 736 mmHg 30%
09:00 +41°C° 0 mm 7 mps 737 mmHg 26%
10:00 +44°C° 0 mm 6 mps 736 mmHg 23%
11:00 +45°C° 0 mm 5 mps 736 mmHg 20%
12:00 +47°C° 0 mm 4 mps 735 mmHg 17%
13:00 +47°C° 0 mm 4 mps 734 mmHg 16%
14:00 +46°C° 0 mm 3 mps 733 mmHg 16%
15:00 +46°C° 0 mm 3 mps 733 mmHg 15%
16:00 +43°C° 0.1 mm 4 mps 733 mmHg 19%
17:00 +41°C° 0.1 mm 6 mps 733 mmHg 23%
18:00 +39°C° 0.1 mm 7 mps 734 mmHg 26%
19:00 +38°C° 0 mm 7 mps 734 mmHg 29%
20:00 +38°C° 0 mm 6 mps 735 mmHg 31%
21:00 +36°C° 0 mm 5 mps 736 mmHg 33%
22:00 +36°C° 0 mm 5 mps 735 mmHg 34%
23:00 +36°C° 0 mm 4 mps 735 mmHg 34%

Tomorrow, 15 May, Saturday

Time Temperature Precipitation Wind Pressure Humidity
00:00 +35°C° 0 mm 3 mps 735 mmHg 34%
01:00 +35°C° 0 mm 3 mps 735 mmHg 36%
02:00 +34°C° 0 mm 3 mps 735 mmHg 38%
03:00 +34°C° 0 mm 2 mps 735 mmHg 40%
04:00 +33°C° 0 mm 3 mps 736 mmHg 43%
05:00 +31°C° 0 mm 3 mps 736 mmHg 46%
06:00 +32°C° 0 mm 4 mps 736 mmHg 49%
07:00 +34°C° 0 mm 4 mps 736 mmHg 44%
08:00 +36°C° 0 mm 5 mps 737 mmHg 38%
09:00 +40°C° 0 mm 6 mps 737 mmHg 32%
10:00 +41°C° 0 mm 5 mps 737 mmHg 28%
11:00 +43°C° 0 mm 4 mps 736 mmHg 23%
12:00 +45°C° 0 mm 2 mps 736 mmHg 19%
13:00 +46°C° 0 mm 3 mps 735 mmHg 17%
14:00 +46°C° 0 mm 3 mps 735 mmHg 16%
15:00 +47°C° 0 mm 3 mps 734 mmHg 14%
16:00 +46°C° 0 mm 3 mps 734 mmHg 15%
17:00 +45°C° 0 mm 3 mps 734 mmHg 15%
18:00 +44°C° 0 mm 3 mps 734 mmHg 16%
19:00 +42°C° 0 mm 3 mps 734 mmHg 19%
20:00 +40°C° 0 mm 3 mps 735 mmHg 21%
21:00 +39°C° 0 mm 3 mps 736 mmHg 23%
22:00 +38°C° 0 mm 3 mps 735 mmHg 24%
23:00 +38°C° 0 mm 3 mps 735 mmHg 25%

Day after tomorrow, 16 May, Sunday

Time Temperature Precipitation Wind Pressure Humidity
00:00 +37°C° 0 mm 3 mps 735 mmHg 26%
01:00 +36°C° 0 mm 3 mps 735 mmHg 27%
02:00 +36°C° 0 mm 3 mps 735 mmHg 29%
03:00 +35°C° 0 mm 3 mps 735 mmHg 30%
04:00 +35°C° 0 mm 3 mps 735 mmHg 32%
05:00 +35°C° 0 mm 4 mps 736 mmHg 34%
06:00 +35°C° 0 mm 4 mps 736 mmHg 35%
07:00 +36°C° 0 mm 5 mps 736 mmHg 34%
08:00 +39°C° 0 mm 6 mps 737 mmHg 32%
09:00 +40°C° 0 mm 6 mps 737 mmHg 31%
10:00 +42°C° 0 mm 5 mps 736 mmHg 26%
11:00 +44°C° 0 mm 3 mps 736 mmHg 22%
12:00 +44°C° 0 mm 1 mps 736 mmHg 17%
13:00 +46°C° 0 mm 2 mps 735 mmHg 15%
14:00 +47°C° 0 mm 3 mps 734 mmHg 13%
15:00 +49°C° 0 mm 4 mps 733 mmHg 11%
16:00 +46°C° 0 mm 3 mps 733 mmHg 13%
17:00 +44°C° 0 mm 3 mps 733 mmHg 15%
18:00 +43°C° 0 mm 3 mps 733 mmHg 17%
19:00 +40°C° 0 mm 3 mps 734 mmHg 20%
20:00 +39°C° 0 mm 3 mps 734 mmHg 23%
21:00 +38°C° 0 mm 4 mps 735 mmHg 25%
22:00 +37°C° 0 mm 4 mps 735 mmHg 26%
23:00 +36°C° 0 mm 4 mps 735 mmHg 28%

17 May, Monday

Time Temperature Precipitation Wind Pressure Humidity
00:00 +36°C° 0 mm 3 mps 735 mmHg 29%
01:00 +35°C° 0 mm 4 mps 735 mmHg 33%
02:00 +34°C° 0 mm 4 mps 735 mmHg 37%
03:00 +33°C° 0 mm 4 mps 735 mmHg 41%
04:00 +33°C° 0 mm 4 mps 735 mmHg 42%
05:00 +33°C° 0 mm 4 mps 736 mmHg 43%
06:00 +33°C° 0 mm 4 mps 736 mmHg 44%
07:00 +35°C° 0 mm 5 mps 737 mmHg 41%
08:00 +38°C° 0 mm 6 mps 737 mmHg 37%
09:00 +40°C° 0 mm 6 mps 738 mmHg 33%
10:00 +42°C° 0 mm 5 mps 737 mmHg 29%
11:00 +43°C° 0 mm 4 mps 737 mmHg 25%
12:00 +45°C° 0 mm 4 mps 736 mmHg 21%
13:00 +46°C° 0 mm 3 mps 736 mmHg 18%
14:00 +47°C° 0 mm 2 mps 735 mmHg 15%
15:00 +46°C° 0 mm 1 mps 734 mmHg 12%
16:00 +46°C° 0 mm 2 mps 734 mmHg 12%
17:00 +46°C° 0 mm 3 mps 734 mmHg 13%
18:00 +45°C° 0 mm 3 mps 734 mmHg 13%
19:00 +44°C° 0 mm 4 mps 735 mmHg 14%
20:00 +43°C° 0 mm 4 mps 735 mmHg 16%
21:00 +42°C° 0 mm 5 mps 736 mmHg 18%
22:00 +41°C° 0 mm 4 mps 736 mmHg 18%
23:00 +41°C° 0 mm 4 mps 735 mmHg 19%

18 May, Tuesday

Time Temperature Precipitation Wind Pressure Humidity
00:00 +40°C° 0 mm 4 mps 735 mmHg 19%
01:00 +38°C° 0 mm 4 mps 735 mmHg 26%
02:00 +37°C° 0 mm 4 mps 735 mmHg 32%
03:00 +35°C° 0 mm 4 mps 735 mmHg 38%
04:00 +35°C° 0 mm 4 mps 735 mmHg 40%
05:00 +35°C° 0 mm 4 mps 736 mmHg 41%
06:00 +34°C° 0 mm 4 mps 736 mmHg 42%
07:00 +36°C° 0 mm 5 mps 737 mmHg 38%
08:00 +40°C° 0 mm 6 mps 737 mmHg 33%
09:00 +42°C° 0 mm 6 mps 738 mmHg 29%
10:00 +44°C° 0 mm 6 mps 737 mmHg 26%
11:00 +46°C° 0 mm 5 mps 737 mmHg 23%
12:00 +47°C° 0 mm 4 mps 736 mmHg 20%
13:00 +47°C° 0 mm 3 mps 736 mmHg 18%
14:00 +47°C° 0 mm 2 mps 735 mmHg 16%
15:00 +46°C° 0 mm 1 mps 734 mmHg 14%
16:00 +45°C° 0 mm 3 mps 734 mmHg 18%
17:00 +42°C° 0 mm 5 mps 734 mmHg 21%
18:00 +40°C° 0 mm 7 mps 734 mmHg 24%
19:00 +40°C° 0 mm 6 mps 735 mmHg 25%
20:00 +39°C° 0 mm 5 mps 735 mmHg 25%
21:00 +38°C° 0 mm 4 mps 736 mmHg 26%
22:00 +37°C° 0 mm 3 mps 736 mmHg 28%
23:00 +36°C° 0 mm 3 mps 736 mmHg 30%

19 May, Wednesday

Time Temperature Precipitation Wind Pressure Humidity
00:00 +36°C° 0 mm 3 mps 736 mmHg 32%
01:00 +36°C° 0 mm 3 mps 736 mmHg 32%
02:00 +35°C° 0 mm 4 mps 735 mmHg 32%
03:00 +35°C° 0 mm 4 mps 735 mmHg 32%
04:00 +35°C° 0 mm 4 mps 736 mmHg 34%
05:00 +35°C° 0 mm 4 mps 736 mmHg 36%
06:00 +35°C° 0 mm 5 mps 736 mmHg 38%
07:00 +36°C° 0 mm 6 mps 737 mmHg 35%
08:00 +39°C° 0 mm 6 mps 737 mmHg 31%
09:00 +41°C° 0 mm 7 mps 737 mmHg 28%
10:00 +44°C° 0 mm 7 mps 737 mmHg 26%
11:00 +45°C° 0 mm 6 mps 737 mmHg 23%
12:00 +47°C° 0 mm 6 mps 736 mmHg 21%
13:00 +47°C° 0 mm 5 mps 736 mmHg 19%
14:00 +48°C° 0 mm 4 mps 735 mmHg 18%
15:00 +48°C° 0 mm 4 mps 734 mmHg 17%
16:00 +44°C° 0 mm 7 mps 735 mmHg 27%
17:00 +39°C° 0 mm 10 mps 735 mmHg 37%
18:00 +34°C° 0 mm 14 mps 735 mmHg 47%
19:00 +36°C° 0.1 mm 11 mps 735 mmHg 42%
20:00 +35°C° 0.1 mm 8 mps 736 mmHg 37%
21:00 +36°C° 0.1 mm 5 mps 736 mmHg 32%
22:00 +36°C° 0 mm 5 mps 736 mmHg 32%
23:00 +36°C° 0 mm 4 mps 736 mmHg 32%
Show more

We Need Your Consent

Meteoprog and our Service Providers may store and access personal data such as cookies, device identifiers or other similar technologies on your device and process such data to personalise content and ads, as well as provide social media features and to analyse the traffic.

  • Store and/or access information on your device

    Cookies, device identifiers or other information can be stored or accessed on your device for the purposes indicated above.

  • Personalised ads and content, ad and content measurement, audience insights, and products development

    Ads and content can be personalised based on a profile. More data can be added to better personalise ads and content. Ad and content performance can be measured. Insights about the audience who saw the ads and content can be derived. Such data can be used to develop or improve user’s experience, systems and software.

By clicking ‘I Agree’ you will allow the use of indicated cookies, device identifiers, web beacons or other similar technologies. Your settings can be changed in the browser on your device.

For certain purposes, legitimate interests may be relied on, rather than consent. You can read more about this in our Privacy and Cookie Policy.